This is the latest recevied weather packets stored in our database for station/object K4PAD. If no packets are shown the sender has not sent any weather packets the latest 10 day(s).
| Time | Temp. | Humidity | Pressure | Rain* | Wind** | Luminosity | Snow |
|---|---|---|---|---|---|---|---|
| 1778012185 | 28.33° C | 43% | 1016.5 hPa | 0 mm | - | 897 W/m² | - |
| 1778011883 | 28.89° C | 42% | 1016.7 hPa | 0 mm | - | 279 W/m² | - |
| 1778011581 | 28.89° C | 42% | 1016.4 hPa | 0 mm | - | 858 W/m² | - |
| 1778011278 | 28.89° C | 41% | 1016.5 hPa | 0 mm | - | 866 W/m² | - |
| 1778010974 | 28.33° C | 44% | 1016.6 hPa | 0 mm | - | 812 W/m² | - |
| 1778010671 | 27.78° C | 44% | 1016.7 hPa | 0 mm | - | 849 W/m² | - |
| 1778010368 | 28.33° C | 44% | 1016.6 hPa | 0 mm | - | 557 W/m² | - |
| 1778010064 | 27.78° C | 44% | 1016.8 hPa | 0 mm | - | 736 W/m² | - |
| 1778009761 | 27.78° C | 44% | 1016.8 hPa | 0 mm | - | 963 W/m² | - |
| 1778009458 | 28.33° C | 43% | 1016.6 hPa | 0 mm | - | 292 W/m² | - |
| 1778009157 | 29.44° C | 40% | 1016.8 hPa | 0 mm | - | 300 W/m² | - |
| 1778008854 | 28.89° C | 40% | 1017.1 hPa | 0 mm | - | 1010 W/m² | - |
| 1778008552 | 28.33° C | 41% | 1017.1 hPa | 0 mm | - | 965 W/m² | - |
| 1778008249 | 27.78° C | 43% | 1017.2 hPa | 0 mm | - | 934 W/m² | - |
| 1778007944 | 27.78° C | 40% | 1017.3 hPa | 0 mm | - | 343 W/m² | - |
| 1778007640 | 28.33° C | 41% | 1017.1 hPa | 0 mm | - | 245 W/m² | - |
| 1778007337 | 27.78° C | 42% | 1017.2 hPa | 0 mm | - | 1037 W/m² | - |
| 1778007033 | 27.78° C | 41% | 1017.5 hPa | 0 mm | - | 315 W/m² | - |
| 1778006730 | 27.78° C | 41% | 1017.5 hPa | 0 mm | - | 1036 W/m² | - |
| 1778006427 | 28.33° C | 40% | 1017.4 hPa | 0 mm | - | 316 W/m² | - |
| 1778006124 | 28.89° C | 39% | 1017.5 hPa | 0 mm | - | 359 W/m² | - |
| 1778005821 | 28.89° C | 37% | 1017.7 hPa | 0 mm | - | 945 W/m² | - |
| 1778005518 | 28.33° C | 41% | 1017.4 hPa | 0 mm | - | 1139 W/m² | - |
| 1778005214 | 28.33° C | 41% | 1017.6 hPa | 0 mm | - | 492 W/m² | - |
| 1778004911 | 28.33° C | 40% | 1017.6 hPa | 0 mm | - | 930 W/m² | - |
* Rain latest hour (hover to see other rain measurements)
** Current wind speed in m/s (hover to see current wind gust speed)